Regional Weather Roundup
Issued by NWS

Home | Current Version | Previous Version | Graphics & Text | Print | Product List | Glossary On
Versions: 1 2 3 4 5 6 7 8 9 10 11 12 13 14 15 16 17 18 19 20 21 22 23 24 25 26 27 28 29 30 31 32 33 34 35 36 37 38 39 40 41 42 43 44 45 46 47 48 49 50
000
ASUS43 KLSX 021859
RWRMO

WEATHER SUMMARY FOR MISSOURI
NATIONAL WEATHER SERVICE SPRINGFIELD MO
100 PM CST MON MAR 02 2015

NOTE: "FAIR" INDICATES FEW OR NO CLOUDS BELOW 12,000 FEET WITH NO
       SIGNIFICANT WEATHER AND/OR OBSTRUCTIONS TO VISIBILITY.
       CURRENT SKY AND/OR WEATHER CONDITIONS ARE NOT AVAILABLE FOR
       CHILLICOTHE AND FARMINGTON.

MOZ001>031-035>038-043-044-053-054-022000-
...NORTHERN AND WESTERN MISSOURI...

CITY           SKY/WX    TMP DP  RH WIND       PRES   REMARKS
KANSAS CTY INT CLOUDY    39  21  48 SE16      30.37F
KANSAS C DTWN  MOSUNNY   40  18  41 SE10      30.38F
LEE`S SUMMIT   PTSUNNY   36  20  52 E12       30.39F WCI  28
ST JOSEPH      MOSUNNY   41  22  46 SE14      30.38F
CHILLICOTHE      N/A     37  23  56 SE9       30.44F
KIRKSVILLE     PTSUNNY   31  20  63 SE6       30.44F WCI  25

$$
MOZ066>068-077>081-088>096-101>105-022000-
...SOUTHWEST MISSOURI...

CITY           SKY/WX    TMP DP  RH WIND       PRES   REMARKS
SPRINGFIELD    CLOUDY    38  17  42 SE14      30.34F WCI  30
JOPLIN         CLOUDY    36  19  50 E14       30.33F WCI  27

$$
MOZ032>034-039>042-045>050-055>058-069>072-022000-
...CENTRAL MISSOURI...

CITY           SKY/WX    TMP DP  RH WIND       PRES   REMARKS
COLUMBIA       PTSUNNY   35  19  52 E8        30.44F WCI  29
JEFFERSON CITY MOSUNNY   35  17  47 E9        30.45F WCI  28
ROLLA          MOSUNNY   33  17  51 NE9       30.40F WCI  25
SEDALIA        PTSUNNY   35  18  49 E13       30.41F WCI  26
OSAGE BEACH    PTSUNNY   36  16  44 E9        30.41F WCI  29

$$
MOZ051-052-059>065-022000-
...EAST CENTRAL MISSOURI...

CITY           SKY/WX    TMP DP  RH WIND       PRES   REMARKS
ST LOUIS INTL  PTSUNNY   34  17  50 SE7       30.49F WCI  28
SPIRIT OF STL  SUNNY     34  16  47 SE7       30.47F WCI  28
ST CHARLES     SUNNY     34  18  52 SE9       30.49F WCI  27

$$
MOZ072>076-082>087-097>100-106>115-022000-
...SOUTH CENTRAL AND SOUTHEAST MISSOURI...

CITY           SKY/WX    TMP DP  RH WIND       PRES   REMARKS
CAPE GIRARDEAU MOSUNNY   38  20  48 NE10      30.46F
FARMINGTON     MOSUNNY   34  18  51 E9        30.47F WCI  26
POPLAR BLUFF   SUNNY     34  19  54 NE9       30.45F WCI  27
WEST PLAINS    PTSUNNY   37  19  48 E9        30.39F

$$



USA.gov is the U.S. government's official web portal to all federal, state and local government web resources and services.